Flag for U.S.A. Weather past 2 weeks in Pasadena, California, U.S.A.

Now
91 °F

Sunny.


Feels Like: 87 °F
Forecast: 65 / 89 °F
Wind: No wind

Location: Burbank-Glendale-Pasadena Airport

Current Time: Mar 27, 2015 at 2:31:26 PM

Latest Report: Mar 27, 2015 at 1:53 PM


Visibility: 10 mi

Pressure: 29.99 "Hg

Humidity: 12%

Dew point: 31 °F

Location of PasadenaLocation

Historic Weather in Pasadena — Graph

°F

Pasadena temperature yesterday

Maximum temperature yesterday: 91 °F (at 3:53 PM)
Minimum temperature yesterday: 59 °F (at 4:53 AM)
Average temperature yesterday: 76 °F

Past Weeks' High & Low Weather Summary

 TemperatureHumidityPressure
High91 °F (Mar 26, 3:53 PM)90% (Mar 21, 5:53 AM)30.16 "Hg (Mar 21, 5:53 AM)
Low53 °F (Mar 23, 6:53 AM)11% (Mar 13, 12:53 PM)29.84 "Hg (Mar 16, 5:53 PM)
Average70 °F45%30.00 "Hg
* Reported Mar 12 12:53 PM — Mar 27 12:53 PM, Pasadena, Weather by CustomWeather, © 2015

Note: Actual official high and low records may vary slightly from our data, if they occured in-between our weather recording intervals... More about our weather records

Advertising

Pasadena weather history for previous 24 hours

 ConditionsComfort  
Time TempWeatherWind HumidityBarometerVisibility
12:53 PM
Fri, Mar 27
89 °FSunny.6 mph15%30.02 "Hg10 mi
11:53 AM86 °FSunny.No wind18%30.04 "Hg10 mi
10:53 AM83 °FSunny.No wind18%30.06 "Hg10 mi
9:53 AM78 °FSunny.No wind25%30.06 "Hg10 mi
8:53 AM70 °FSunny.No wind35%30.05 "Hg10 mi
7:53 AM65 °FSunny.No wind39%30.04 "Hg10 mi
6:53 AM60 °FClear.No wind46%30.03 "Hg10 mi
5:53 AM62 °FClear.No wind41%30.01 "Hg10 mi
4:53 AM63 °FClear.No wind40%30.01 "Hg10 mi
3:53 AM63 °FClear.No wind40%30.00 "Hg10 mi
2:53 AM65 °FClear.3 mph34%30.01 "Hg10 mi
1:53 AM66 °FClear.No wind33%30.01 "Hg10 mi
12:53 AM68 °FClear.No wind30%30.01 "Hg10 mi
11:53 PM
Thu, Mar 26
72 °FClear.3 mph24%30.01 "Hg10 mi
10:53 PM73 °FClear.6 mph24%30.01 "Hg10 mi
9:53 PM76 °FClear.5 mph21%30.01 "Hg10 mi
8:53 PM81 °FClear.3 mph16%30.01 "Hg10 mi
7:53 PM83 °FSunny.6 mph15%29.99 "Hg10 mi
6:53 PM85 °FSunny.5 mph14%29.97 "Hg10 mi
5:53 PM88 °FSunny.6 mph11%29.96 "Hg10 mi
4:53 PM90 °FSunny.10 mph11%29.96 "Hg10 mi
3:53 PM91 °FSunny.12 mph11%29.97 "Hg10 mi
2:53 PM90 °FSunny.12 mph13%29.98 "Hg10 mi
Weather by CustomWeather, © 2015

See weather overviewHow to use our weather pages